Home   Weather   Hialeah   Past weeks
Flag for USA

Past Weather in Hialeah, Florida, USA — Yesterday and Last 2 Weeks

Now
71 °F

Scattered clouds.


Feels Like: 73 °F
Forecast: 78 / 66 °F
Wind: 10 mph from North

Location: Opa Locka Airport

Current Time: Mar 20, 2019 at 11:35:52 am

Latest Report: Mar 20, 2019 at 10:53 am


Visibility: 10 mi

Pressure: 30.02 "Hg

Humidity: 76%

Dew Point: 63 °F

Location of HialeahLocation

Past Weather in Hialeah — Graph

°F

Hialeah Temperature Yesterday

Maximum temperature yesterday: 70 °F (at 12:53 am)
Minimum temperature yesterday: 64 °F (at 10:53 pm)
Average temperature yesterday: 68 °F

High & Low Weather Summary for the Past Weeks

 TemperatureHumidityPressure
High85 °F (Mar 5, 12:53 pm)97% (Mar 19, 11:53 pm)30.30 "Hg (Mar 19, 11:53 pm)
Low53 °F (Mar 6, 6:53 am)34% (Mar 6, 2:53 pm)29.96 "Hg (Mar 20, 3:53 am)
Average73 °F72%30.11 "Hg
* Reported Mar 5 8:53 am — Mar 20 9:53 am, Hialeah. Weather by CustomWeather, © 2019

Note: Actual official high and low records may vary slightly from our data, if they occured in-between our weather recording intervals... More about our weather records

Advertising

Hialeah Weather History for the Previous 24 Hours

Scroll right to see more
 ConditionsComfort  
Time TempWeatherWind HumidityBarometerVisibility
9:53 am
Wed, Mar 20
68 °FPartly sunny.13 mph84%30.02 "Hg10 mi
8:53 am65 °FMostly cloudy.14 mph91%30.00 "Hg10 mi
8:09 am64 °FMostly cloudy.12 mph90%29.99 "Hg10 mi
7:53 am64 °FLow clouds.12 mph90%29.99 "Hg10 mi
6:53 am63 °FMostly cloudy.10 mph93%29.97 "Hg10 mi
6:42 am63 °FPassing clouds.8 mph93%29.97 "Hg10 mi
5:53 am64 °FPassing clouds.10 mph94%29.96 "Hg10 mi
5:01 am64 °FLight rain. Mostly cloudy.14 mph94%29.96 "Hg10 mi
3:53 am65 °FLow clouds.8 mph94%29.96 "Hg10 mi
3:31 am65 °FPassing clouds.10 mph94%29.97 "Hg10 mi
3:17 am65 °FLight rain. Passing clouds.7 mph94%29.97 "Hg10 mi
2:53 am65 °FPartly cloudy.6 mph94%29.98 "Hg10 mi
1:53 am66 °FLight rain. Mostly cloudy.6 mph93%30.01 "Hg10 mi
1:39 am66 °FLight rain. Overcast.15 mph93%30.01 "Hg10 mi
12:53 am65 °FLight rain. Mostly cloudy.9 mph94%30.02 "Hg10 mi
12:36 am65 °FLight rain. Mostly cloudy.6 mph94%30.03 "Hg9 mi
11:53 pm
Tue, Mar 19
64 °FLight rain. Mostly cloudy.9 mph97%30.04 "Hg8 mi
11:32 pm64 °FLight rain. Mostly cloudy.12 mph94%30.05 "Hg10 mi
10:53 pm64 °FLight rain. Low clouds.10 mph94%30.06 "Hg10 mi
10:30 pm65 °FRain. Mostly cloudy.9 mph91%30.06 "Hg10 mi
10:08 pm65 °FLight rain. Mostly cloudy.10 mph94%30.05 "Hg10 mi
9:10 pm67 °FLight rain. Mostly cloudy.13 mph90%30.02 "Hg10 mi
8:48 pm67 °FMostly cloudy.9 mph93%30.02 "Hg10 mi
7:53 pm69 °FMostly cloudy.9 mph84%30.01 "Hg10 mi
6:53 pm69 °FCloudy.8 mph84%29.99 "Hg10 mi
6:00 pm68 °FLight rain. More clouds than sun.13 mph90%30.00 "Hg10 mi
5:14 pm69 °FLight rain. Mostly cloudy.10 mph84%30.00 "Hg10 mi
4:42 pm70 °FMostly cloudy.10 mph84%29.99 "Hg10 mi
4:00 pm70 °FMore clouds than sun.13 mph84%30.00 "Hg10 mi
2:53 pm68 °FLight rain. Fog.12 mph90%29.99 "Hg4 mi
1:53 pm68 °FRain. Fog.9 mph93%30.06 "Hg2 mi
1:22 pm68 °FLight rain. Fog.7 mph90%30.08 "Hg5 mi
1:00 pm68 °FLight rain. Mostly cloudy.7 mph90%30.09 "Hg10 mi
12:15 pm67 °FRain. Fog.7 mph93%30.10 "Hg4 mi
12:00 pm67 °FRain. Cloudy.8 mph93%30.09 "Hg8 mi
11:38 am67 °FRain. Fog.8 mph93%30.09 "Hg3 mi
Weather by CustomWeather, © 2019

See weather overview